Home > Weather > Villavicencio > Past weeks

Flag for Colombia Past Weather in Villavicencio, Colombia — Yesterday and Last 2 Weeks

Now
52 °F

Passing clouds.


Feels Like: 52 °F
Forecast: 71 / 85 °F
Wind: 2 mph from North

Location: Bogota / Eldorado

Current Time: May 25, 2016 at 12:27:50 AM

Latest Report: May 25, 2016 at 12:00 AM


Visibility: N/A

Pressure: 30.46 "Hg

Humidity: 94%

Dew Point: 50 °F

Location of VillavicencioLocation

Past Weather in Villavicencio — Graph

°F

Villavicencio Temperature Yesterday

Maximum temperature yesterday: 68 °F (at 12:00 PM)
Minimum temperature yesterday: 52 °F (at 11:00 PM)
Average temperature yesterday: 59 °F

High & Low Weather Summary for the Past Weeks

 TemperatureHumidityPressure
High70 °F (May 17, 2:00 PM)94% (May 10, 3:00 AM)30.46 "Hg (May 10, 3:00 AM)
Low46 °F (May 12, 5:00 AM)40% (May 17, 2:00 PM)29.36 "Hg (May 18, 7:00 AM)
Average59 °F74%30.37 "Hg
* Reported May 9 11:00 PM — May 24 11:00 PM, Villavicencio, Weather by CustomWeather, © 2016

Note: Actual official high and low records may vary slightly from our data, if they occured in-between our weather recording intervals... More about our weather records

Advertising

Villavicencio Weather History for the Previous 24 Hours

Scroll right to see more
 ConditionsComfort  
Time TempWeatherWind HumidityBarometerVisibility
11:00 PM
Tue, May 24
52 °FPassing clouds.2 mph94%30.46 "HgN/A
10:00 PM55 °FPassing clouds.2 mph88%30.45 "HgN/A
9:00 PM57 °FPassing clouds.5 mph77%30.44 "HgN/A
8:00 PM61 °FPassing clouds.6 mph72%30.43 "HgN/A
7:00 PM59 °FScattered showers. Partly cloudy.6 mph82%30.42 "HgN/A
6:00 PM61 °FScattered showers. Partly sunny.7 mph72%30.40 "HgN/A
5:00 PM63 °FDrizzle. Partly sunny.16 mph68%30.38 "Hg6 mi
4:00 PM66 °FScattered showers. Partly sunny.12 mph56%30.38 "HgN/A
3:00 PM66 °FPartly sunny.14 mph56%30.37 "HgN/A
2:00 PM68 °FScattered showers. Partly sunny.12 mph53%30.39 "HgN/A
1:00 PM66 °FScattered showers. Partly sunny.9 mph52%30.42 "HgN/A
12:00 PM68 °FPartly sunny.10 mph53%30.44 "HgN/A
11:00 AM66 °FScattered showers. Partly sunny.12 mph52%30.45 "HgN/A
10:00 AM64 °FPartly sunny.9 mph60%30.45 "HgN/A
9:00 AM63 °FScattered clouds.7 mph68%30.44 "HgN/A
8:00 AM59 °FScattered clouds.7 mph77%30.44 "HgN/A
7:00 AM55 °FScattered clouds.5 mph82%30.42 "HgN/A
6:00 AM54 °FScattered clouds.9 mph88%30.40 "HgN/A
5:00 AM54 °FPassing clouds.5 mph88%30.39 "HgN/A
4:00 AM54 °FThunderstorms. Partly cloudy.5 mph88%30.39 "HgN/A
3:00 AM54 °FPartly cloudy.5 mph94%30.40 "HgN/A
2:00 AM54 °FPartly cloudy.6 mph94%30.43 "Hg6 mi
1:00 AM54 °FPartly cloudy.8 mph94%30.44 "Hg6 mi
12:00 AM55 °FPartly cloudy.5 mph88%30.46 "Hg4 mi
Weather by CustomWeather, © 2016

See weather overviewHow to use our weather pages